• Join FlightAware (Why Join?)
  • Login
  • US Flag 
02:41AM EDT


 

Airport Tracker/Info


-or-


 

Live Flight TrackerFlight Track Log ✈ ASQ5361 ✈ 19-Apr-2013 ✈ KDTW - KEWR

Flight Track Log - Related Links

Times and Time Zones

All times are in EDT time to prevent confusion due to time zone crossing. See the ASQ5361 flight status page for this flight to view local times or setup timezone preferences in your user account.

Time Position Orientation Groundspeed Altitude Reporting Facility
EDT Latitude Longitude Course Direction KTS MPH feet Rate Location/Type
11:29PM 42.2058 -83.3528 169° South 146 168 1,500  Level Cleveland Center
11:30PM 42.1394 -83.3358 169° South 222 255 4,700 2,280 Climbing Cleveland Center
11:31PM 42.1294 -83.2319 97° East 308 354 6,900 2,400 Climbing Cleveland Center
11:32PM 42.1425 -83.1175 81° East 309 356 9,600 2,580 Climbing Cleveland Center
11:33PM 42.1528 -83.0283 81° East 386 444 11,800 1,980 Climbing Cleveland Center
11:34PM 42.1678 -82.9111 80° East 342 394 13,400 1,500 Climbing Cleveland Center
11:35PM 42.1831 -82.7744 81° East 336 387 14,800 1,560 Climbing Cleveland Center
11:36PM 42.1939 -82.6292 84° East 366 421 16,600 1,800 Climbing Cleveland Center
11:37PM 42.1756 -82.4883 100° East 378 435 18,500 1,860 Climbing Cleveland Center
11:38PM 42.1550 -82.3392 100° East 392 451 20,400 1,560 Climbing Cleveland Center
11:39PM 42.1364 -82.1875 99° East 397 457 21,700 1,200 Climbing Cleveland Center
11:40PM 42.1175 -82.0331 99° East 410 472 22,900 1,080 Climbing Cleveland Center
11:41PM 42.0967 -81.8703 100° East 431 496 23,900 1,020 Climbing Cleveland Center
11:42PM 42.0733 -81.6992 100° East 448 516 25,000 1,020 Climbing Cleveland Center
11:43PM 42.0478 -81.5169 101° East 448 516 26,000 960 Climbing Cleveland Center
11:44PM 42.0261 -81.3433 99° East 456 525 27,000 960 Climbing Cleveland Center
11:45PM 42.0044 -81.1700 99° East 463 533 28,000 1,020 Climbing Cleveland Center
11:46PM 41.9800 -80.9994 101° East 469 540 29,100 1,140 Climbing Cleveland Center
11:47PM 41.9556 -80.8289 101° East 469 540 30,300 1,140 Climbing Cleveland Center
11:48PM 41.9308 -80.6614 101° East 464 534 31,400 1,140 Climbing Cleveland Center
11:49PM 41.9058 -80.4967 101° East 459 528 32,600 780 Climbing Cleveland Center
11:50PM 41.8847 -80.3489 101° East 454 522 33,000 180 Climbing Cleveland Center
11:51PM 41.8614 -80.1817 101° East 448 516 33,000  Level Cleveland Center
11:52PM 41.8356 -80.0119 101° East 459 528 33,000  Level Cleveland Center
11:53PM 41.8097 -79.8394 101° East 464 534 33,000  Level Cleveland Center
11:54PM 41.7856 -79.6725 101° East 464 534 33,000  Level Cleveland Center
11:55PM 41.7589 -79.5003 102° East 464 534 33,000 -420 Level Cleveland Center
11:56PM 41.7342 -79.3311 101° East 464 534 32,200 -900 Descending Cleveland Center
11:57PM 41.7072 -79.1619 102° East 464 534 31,200 -600 Descending Cleveland Center
11:58PM 41.6822 -78.9983 102° East 464 534 31,000 -120 Descending Cleveland Center
11:59PM 41.6528 -78.8269 103° East 464 534 31,000  Level Cleveland Center
12:00AM 41.6269 -78.6553 101° East 464 534 31,000  Level Cleveland Center
12:01AM 41.5969 -78.4922 104° East 464 534 31,000  Level Cleveland Center
12:02AM 41.5708 -78.3239 102° East 464 534 31,000  Level Cleveland Center
12:03AM 41.5644 -78.2906 104° East 465 535 31,000  Level New York Center
12:04AM 41.5378 -78.1211 102° East 465 535 31,000  Level New York Center
12:04AM 41.5103 -77.9547 102° East 465 535 31,000  Level New York Center
12:06AM 41.4853 -77.7831 101° East 465 535 31,000  Level New York Center
12:06AM 41.4619 -77.6117 100° East 465 535 31,000 -720 Level New York Center
12:07AM 41.4367 -77.4319 101° East 477 549 29,600 -1,920 Descending New York Center
12:08AM 41.4053 -77.2436 102° East 477 549 27,200 -1,320 Descending New York Center
12:09AM 41.3794 -77.0694 101° East 477 549 27,000 -180 Descending New York Center
12:10AM 41.3550 -76.8958 101° East 477 549 26,900 -600 Descending New York Center
12:11AM 41.3256 -76.7383 104° East 477 549 25,900 -1,380 Descending New York Center
12:12AM 41.2817 -76.5744 110° East 477 549 24,200 -1,740 Descending New York Center
12:13AM 41.2358 -76.4022 109° East 483 556 22,500 -1,740 Descending New York Center
12:14AM 41.1933 -76.2414 109° East 478 550 20,700 -1,740 Descending New York Center
12:15AM 41.1522 -76.0919 110° East 451 519 19,100 -840 Descending New York Center
12:17AM 41.1111 -75.9372 109° East 412 474 19,000 -120 Descending New York Center
12:17AM 41.0717 -75.7911 110° East 412 474 18,900 -1,140 Descending New York Center
12:19AM 41.0333 -75.6617 111° Southeast 418 481 16,800 -2,280 Descending New York Center
12:19AM 40.9917 -75.5047 109° East 412 474 14,400 -2,340 Descending New York Center
12:20AM 40.9550 -75.3786 111° Southeast 385 443 12,300 -1,860 Descending New York Center
12:21AM 40.9222 -75.2583 110° East 360 414 10,700 -1,440 Descending New York Center
12:22AM 40.8931 -75.1494 109° East 331 381 9,500 -900 Descending New York Center
12:24AM 40.8633 -75.0486 111° Southeast 301 346 9,000 -300 Descending New York Center
12:24AM 40.8503 -74.9492 100° East 301 346 9,000  Level New York Center
12:25AM 40.8461 -74.8281 93° East 315 362 9,000 -720 Level New York Center
12:26AM 40.9019 -74.7133 57° Northeast 329 379 7,600 -1,200 Descending New York Center
12:27AM 40.9672 -74.6292 44° Northeast 329 379 6,700 -1,080 Descending New York Center
12:29AM 41.0239 -74.5556 44° Northeast 298 343 5,500 -900 Descending New York Center
12:30AM 41.0636 -74.4833 54° Northeast 277 319 5,000 -300 Descending New York Center
12:31AM 41.0519 -74.3892 99° East 222 255 5,000 -120 Level New York Center
12:31AM 41.0333 -74.3667 138° Southeast 229 264 4,900 -720 Descending New York TRACON
12:32AM 41.0167 -74.3000 108° East 219 252 4,100 -480 Descending New York TRACON
12:33AM 40.9667 -74.2333 135° Southeast 217 250 4,100  Level New York TRACON
12:34AM 40.9333 -74.1667 123° Southeast 229 264 4,100 -420 Level New York TRACON
12:35AM 40.9000 -74.1000 123° Southeast 208 239 3,300 -540 Descending New York TRACON
12:36AM 40.8667 -74.0667 143° Southeast 182 209 3,000 -300 Descending New York TRACON
12:37AM 40.8167 -74.0833 194° South 176 203 2,800 -660 Descending New York TRACON
12:38AM 40.7667 -74.1167 207° Southwest 180 207 1,800 -960 Descending New York TRACON
12:39AM 40.7333 -74.1333 201° Southwest 154 177 800 -960 Descending New York TRACON
12:41AM 40.6833 -74.1667 102° East  Level FlightAware Approximate
12:48AM 40.6925 -74.1687 102° East  Level Estimated
12:49AM 40.6925 -74.1687 102° East  Level Estimated